www.pogodaiklimat.ru
ПОГОДА в Гаррисберге
Время
и дата
06:56 15.07
07:56 15.07
08:56 15.07
09:56 15.07
10:56 15.07
11:56 15.07
12:56 15.07
13:56 15.07
14:56 15.07
15:56 15.07
16:56 15.07
17:56 15.07
18:56 15.07
19:56 15.07
20:56 15.07
21:56 15.07
22:56 15.07
23:56 15.07
00:56 16.07
01:56 16.07
02:56 16.07
03:56 16.07
04:56 16.07
05:56 16.07
06:56 16.07
07:56 16.07
08:56 16.07
09:56 16.07
10:56 16.07
11:56 16.07
12:56 16.07
13:56 16.07
14:56 16.07
15:56 16.07
16:56 16.07
17:56 16.07
18:56 16.07
19:56 16.07
20:56 16.07
21:56 16.07
22:56 16.07
23:56 16.07
00:56 17.07
01:56 17.07
02:56 17.07
03:56 17.07
04:56 17.07
05:56 17.07
Ветер
(напр.,м/с)
Видим. Явления Облачность Т
(С)
Тd
(С)
f
(%)
Тe
(С)
Тes
(С)
Комфортность P
(гПа)
Po
(гПа)
Тmin
(С)
Tmax
(С)
R
(мм)
R24
(мм)
S
(см)
З 2 16 км ясно +26.1 +19.4 67 +32 +33 очень
душно
1013.7 1001.6 +23.9 +26.1
З 3 16 км ясно +30.0 +19.4 53 +36 +39 очень
душно
1013.5 1001.6
З 4 16 км ясно +31.7 +18.9 47 +37 +42 очень
душно
1013.3 1001.2
З 4 16 км ясно +33.3 +19.4 44 +39 +47 очень
душно
1013.1 1001.2
СЗ 5
{9}
16 км ясно +34.4 +18.9 40 +39 +48 очень
душно
1012.6 1000.6
З 4 14 км 2/2 1650 м +35.6 +20.6 42 +42 +52 опасность
перегрева
1012.1 1000.2
З 5
{9}
16 км 5/5 1800 м +36.1 +20.0 39 +42 +47 опасность
перегрева
1011.7 999.6 +26.1 +36.1
З 5
{9}
16 км 5/5 1800 м +36.7 +18.9 35 +41 +46 опасность
перегрева
1010.7 998.9
ЮЗ 4 16 км слабый дождь 8/2 1500 m
[Ac Ns]
+34.4 +18.9 40 +39 +44 очень
душно
1010.0 997.9
Ю 4 16 км 2/2 1500 м +35.6 +20.0 40 +41 +48 опасность
перегрева
1008.7 996.9
Ю 6 16 км ясно +34.4 +19.4 41 +40 +43 очень
душно
1008.0 996.2
Ю 9
{13}
16 км 5/2 1350 m
[Ac]
+32.8 +18.9 44 +38 +38 очень
душно
1008.2 996.2
Ю 5
{9}
16 км 2/0 3000 m
[Ac]
+32.2 +19.4 47 +38 +39 очень
душно
1008.4 996.5 +32.2 +37.2
ЮЗ 6
{10}
16 км ясно +31.1 +18.3 46 +36 +36 очень
душно
1008.9 996.9
З 3 16 км ясно +29.4 +18.3 51 +34 +34 очень
душно
1009.6 997.5
З 4 16 км ясно +28.9 +18.3 53 +34 +34 очень
душно
1009.6 997.5
З 2 16 км ясно +27.8 +18.3 56 +33 +33 очень
душно
1009.4 997.5
штиль 0 16 км ясно +26.7 +18.3 60 +31 +31 душно 1009.2 997.2
штиль 0 16 км ясно +26.7 +18.3 60 +31 +31 душно 1009.1 997.2 +26.1 +32.2
штиль 0 16 км ясно +25.6 +18.9 66 +31 +31 очень
душно
1009.3 997.5
З 2 16 км ясно +25.0 +18.9 69 +30 +30 душно 1009.3 997.5
С 2 16 км ясно +26.7 +18.9 62 +32 +32 очень
душно
1009.6 997.5
штиль 0 16 км ясно +23.3 +18.9 76 +30 +30 очень
душно
1010.0 998.2
ЮЗ 2 16 км ясно +24.4 +19.4 74 +30 +30 очень
душно
1010.4 998.6
СЗ 2 16 км ясно +27.8 +19.4 60 +33 +34 очень
душно
1010.6 998.6 +23.3 +27.8
ЮЗ 2 16 км ясно +29.4 +18.9 53 +35 +38 очень
душно
1010.2 998.2
ЮЗ 3 16 км ясно +32.2 +19.4 47 +38 +44 очень
душно
1010.1 998.2
ЮЗ 5
{8}
16 км ясно +33.9 +19.4 43 +40 +46 очень
душно
1009.6 997.5
ЮЗ 6
{9}
16 км ясно +35.6 +20.0 40 +41 +48 опасность
перегрева
1009.3 997.2
ЮЗ 7
{12}
16 км 2/2 1650 м +37.8 +18.3 32 +42 +46 опасность
перегрева
1008.9 996.9
З 7
{13}
16 км 5/5 1500 м +38.3 +17.2 29 +41 +44 опасность
перегрева
1008.2 996.2 +27.8 +38.9
ЮЗ 7
{13}
16 км 5/0 2700 m
[Ac]
+38.3 +17.8 30 +41 +45 опасность
перегрева
1007.2 995.2
ЮЗ 5 16 км 8/0 2550 m
[Ac]
+36.7 +18.9 35 +41 +45 опасность
перегрева
1006.8 994.9
З 5 16 км 5/0 2550 m
[Ac]
+39.4 +17.2 27 +42 +46 опасность
перегрева
1006.2 994.2
З 4
{8}
16 км ясно +37.8 +16.1 28 +40 +45 очень
душно
1006.4 994.5
СЗ 7
{11}
16 км 5/0 2250 m
[Ac]
+34.4 +17.2 36 +38 +38 очень
душно
1007.1 995.2
З 4
{8}
16 км ясно +32.8 +17.2 39 +36 +37 очень
душно
1007.9 995.9 +32.8 +39.4
штиль 0 16 км 8/0 3300 m
[Ac]
+31.7 +17.2 42 +35 +36 очень
душно
1008.4 996.5
СЗ 3 16 км 2/0 2700 m
[Ac]
+30.0 +17.2 46 +34 +34 очень
душно
1009.4 997.5
штиль 0 16 км ясно +28.9 +18.3 53 +34 +34 очень
душно
1009.5 997.5
З 3 16 км ясно +28.3 +18.9 57 +34 +34 очень
душно
1009.8 997.9
З 2 16 км ясно +27.8 +18.9 58 +33 +33 очень
душно
1010.1 998.2
З 2 16 км ясно +26.7 +18.9 62 +32 +32 очень
душно
1009.8 997.9 +26.1 +32.8
ЮЗ 2 16 км ясно +25.6 +19.4 69 +31 +31 очень
душно
1009.6 997.5
З 2 16 км 2/0 3000 m
[Ac]
+26.1 +18.3 62 +31 +31 очень
душно
1009.5 997.5
З 2 16 км 8/0 3600 m
[Ac]
+25.6 +18.3 64 +30 +30 душно 1009.7 997.9
З 2 16 км ясно +25.0 +18.3 66 +29 +29 душно 1010.3 998.2
З 2 16 км ясно +26.1 +18.9 65 +31 +31 очень
душно
1010.8 998.9
Местоположение метеостанции Capital City Airport: широта 40.2184 долгота -76.8552 высота над уровнем моря 102 м.
В архиве по умолчанию представлена погода в Гаррисберге за последние 1-2 суток. Обновление информации о фактической погоде в базе происходит ежечасно! Архивные данные за месяц целиком и за предыдущие месяцы Вы можете получить, выбрав интересующий диапазон дат из раскрывающегося списка и нажав кнопку "Ввод!".
Внимание! Архив погоды МЕТАР в базе сайта по станциям, не включенным в климатический монитор, хранится не более 60 дней. Нет смысла пытаться выбрать более раннюю дату.
*Определитесь, кто Вы:
Внимание! Время в таблицах - местное (без учета летнего времени). Для получения всемирного времени необходимо вычесть поправку, которая равна -5 ч.
Смотрите также архив погоды в соседних городах и на ближайших метеорологических станциях:
Партнеры нашего сайта:      
Пояснения к столбцам:
  • Ветер - указаны скорость ветра в м/с - средняя за 10 мин, порывы в срок и между сроками (в фигурных скобках) и направление, откуда дует ветер: С - северный,
  • СВ - северо-восточный, В - восточный, ЮВ - юго-восточный, Ю - южный, ЮЗ - юго-западный, З - западный, СЗ - северо-западный.
  • Видимость - горизонтальная дальность видимости в метрах или километрах. При видимости от 1 до 10 км при отсутствии осадков обычно наблюдается дымка, при ухудшении видимости до 1 км и менее - туман. В сухую погоду видимость может ухудшаться дымом, пылью или мглою.
  • Явления - указаны атмосферные явления, наблюдавшиеся в срок или в последний час перед сроком; фигурными скобками обозначены явления, наблюдавшиеся между сроками (за 1-3 часа до срока); квадратными скобками обозначены град или гололедные отложения с указанием их диаметра в мм.
  • Облачность - указаны через наклонную черту общая и нижняя облачность в баллах и высота нижней границы облаков в метрах; квадратными скобками обозначены формы облаков: Ci - перистые, Cs - перисто-слоистые, Cc - перисто-кучевые, Ac - высококучевые, As - высокослоистые, Sc - слоисто-кучевые, Ns - слоисто-дождевые, Cu - кучевые, Cb - кучево-дождевые. Подробнее классификацию облаков см. в Атласе облаков (PDF).
  • T - Температура воздуха - температура, измеренная на высоте 2 м над землей.
  • Td - Температура точки росы - температура, при понижении до которой содержащийся в воздухе водяной пар достигнет насыщения.
  • f - Относительная влажность воздуха - влажноcть воздуха, измеренная на высоте 2 м над землей.
  • Te - Эффективная температура - температура, которую ощущает одетый по сезону человек в тени. Характеристика душности погоды. При расчете учитывается влияние влажности воздуха и скорости ветра на теплоощущения человека.
  • Tes - Эффективная температура на солнце - температура, которую ощущает человек, с поправкой на солнечный нагрев. Характеристика знойности погоды. Зависит от высоты солнца над горизонтом, облачности и скорости ветра. Ночью, в пасмурную погоду, а также при ветре 12 м/с и более поправка равна нулю.
  • P - Атмосферное давление - приведенное к уровню моря атмосферное давление.
  • Po - Атмосферное давление - измеренное на уровне метеостанции атмосферное давление.
  • Tmin - Минимальная температура - минимум температуры воздуха на высоте 2 м над землей.
  • Tmax - Максимальная температура - максимум температуры воздуха на высоте 2 м над землей.
  • R - Количество осадков - Количество выпавших осадков за период времени, мм. При наведении курсора мыши на число - период времени, за который выпало указанное количество осадков.
  • R24 - Количество осадков - Количество выпавших осадков за 24 часа, мм.
  • S - Снежный покров - Высота снежного покрова, см. При наведении курсора мыши на число - состояние снежного покрова и степень покрытия местности в баллах.